[[{"header":{"parameterUnit":"m.s-1","parameterCategory":1,"la1":30.2991,"la2":30.254,"lo1":-89.0895,"lo2":-89.0444,"dy":0.0017,"dx":0.0017,"nx":28,"ny":28,"refTime":"2024-06-28T03:00:00:Z","depth":0,"parameterNumber":2,"parameterNumberName":"U-component_of_WINDS"},"data":[0,0,0,0,0,0,0,0,0,0,0,0,0,0,0,0,0,0,0,0,0,0,0,0,0,0,0,0,0,0,0,0,0,0,0,0,0,0,0,0,0,0,0,0,0,0,0,0,0,0,0,0,0,0,0,0,0,0,3.0791,3.0793,0,3.096,3.0962,3.0964,3.1011,3.101,3.1009,3.1008,3.1184,3.1189,3.1195,0,0,0,0,0,0,0,0,0,0,0,0,0,3.0511,3.0516,3.0791,3.0793,3.0795,3.096,3.0962,3.0964,3.1011,3.101,3.1009,3.1008,3.1182,3.1189,3.1195,0,0,0,0,0,0,0,0,0,0,0,0,0,3.0651,3.0517,3.079,3.0838,3.0844,3.0959,3.0962,3.0965,3.1011,3.101,3.1008,3.1007,3.118,3.1188,3.1196,3.1277,0,0,3.1222,3.1225,0,0,0,0,0,0,0,0,3.0643,3.0662,3.0829,3.0835,3.0842,3.0963,3.0928,3.107,3.1012,3.0948,3.1008,3.1006,3.1112,3.1126,3.1161,3.1285,3.1293,3.1223,3.1228,3.1231,3.1234,0,0,0,0,0,0,0,3.0633,3.0655,3.0858,3.0831,3.0839,3.0852,3.087,3.0955,3.1036,3.0953,3.0957,3.0976,3.1115,3.1152,3.1165,3.1295,3.1222,3.123,3.1235,3.1238,3.1496,3.1497,0,0,0,0,0,0,3.0615,3.0646,3.0852,3.0863,3.0737,3.0858,3.0879,3.0926,3.1035,3.105,3.0977,3.0978,3.1139,3.1155,3.1171,3.1273,3.1231,3.1239,3.1244,3.1494,3.1496,3.1498,0,0,0,0,0,0,3.0609,3.0633,3.0846,3.0756,3.0784,3.0864,3.0917,3.093,3.0967,3.1053,3.1068,3.1001,3.1138,3.116,3.125,3.128,3.1243,3.125,3.1492,3.1494,3.1497,3.1476,0,0,0,0,0,0,3.0601,3.0631,3.0661,3.0756,3.0788,3.0921,3.0919,3.0934,3.0981,3.0983,3.1079,3.1093,3.1139,3.1238,3.1259,3.129,3.1257,3.1489,3.1493,3.1496,3.1475,3.1478,3.1481,0,0,0,0,0,3.0591,3.0649,3.0663,3.0687,3.0828,3.0922,3.0941,3.0991,3.0983,3.1015,3.1071,3.109,3.1273,3.1246,3.1271,3.1305,3.1488,3.1492,3.1496,3.1473,3.1477,3.1481,0,0,0,0,0,0,3.0556,3.0662,3.0678,3.0769,3.0836,3.093,3.0971,3.0994,3.1065,3.1064,3.1124,3.1145,3.1232,3.1278,3.1246,3.139,3.1381,3.139,3.1356,3.136,3.1363,3.1349,3.1264,0,0,0,0,0,3.0559,3.0626,3.0716,3.0787,3.082,3.089,3.0933,3.0966,3.1038,3.1067,3.1129,3.1199,3.1272,3.1319,3.1392,3.1483,3.1504,3.1519,3.1521,3.1524,3.153,3.1582,3.1589,3.1511,3.1511,3.1511,0,0,3.0566,3.0632,3.0671,3.0782,3.0838,3.0906,3.0913,3.0985,3.1037,3.1078,3.1167,3.1215,3.1298,3.1388,3.1432,3.143,3.1557,3.1529,3.153,3.1535,3.1587,3.1594,3.16,3.1514,3.1514,3.1513,0,0,3.0613,3.067,3.0736,3.0792,3.0876,3.0922,3.0938,3.1029,3.1062,3.1152,3.1185,3.1248,3.1373,3.143,3.1475,3.1545,3.1566,3.1568,3.1583,3.1632,3.1638,3.1644,3.1668,3.1676,3.1574,3.1574,3.1574,0,3.0611,3.0714,3.0767,3.0837,3.0885,3.0926,3.0993,3.1045,3.1149,3.1181,3.1178,3.1336,3.1394,3.1499,3.1516,3.1552,3.1572,3.1556,3.1633,3.1639,3.1645,3.1669,3.1678,3.1574,3.1574,3.1574,3.1574,0,3.0707,3.0778,3.0822,3.092,3.0973,3.1042,3.1105,3.1153,3.1182,3.1229,3.1321,3.1393,3.148,3.1508,3.1537,3.1618,3.1614,3.1621,3.1613,3.1651,3.1675,3.1684,3.1573,3.1573,3.1573,3.1574,0,0,3.0735,3.0862,3.0877,3.0922,3.1019,3.1076,3.1147,3.1232,3.1271,3.1342,3.1403,3.1509,3.1516,3.1568,3.1604,3.1648,3.1698,3.165,3.1653,3.1655,3.179,3.1783,3.1792,3.1713,3.1715,3.1717,3.1783,0,3.0793,3.0919,3.097,3.1073,3.114,3.118,3.1242,3.1308,3.1355,3.1419,3.1471,3.1544,3.1549,3.158,3.1626,3.1682,3.1726,3.1678,3.177,3.1773,3.1746,3.1805,3.1797,3.1856,3.1792,3.1794,3.1795,0,3.0877,3.0947,3.1057,3.1146,3.1176,3.123,3.1312,3.1373,3.145,3.1481,3.1539,3.1573,3.165,3.1639,3.1746,3.1712,3.1753,3.1787,3.1791,3.18,3.1785,3.1814,3.1876,3.1884,3.181,3.1809,3.1808,0,3.0884,3.1007,3.1089,3.1127,3.1233,3.127,3.1316,3.1392,3.144,3.1512,3.1544,3.1625,3.1668,3.1731,3.1786,3.1773,3.1888,3.1881,3.1916,3.1914,3.1936,3.1934,3.2004,3.1965,3.1965,3.1965,3.1965,0,3.0943,3.1008,3.1094,3.1144,3.1218,3.1277,3.1349,3.1398,3.1465,3.1526,3.1567,3.1623,3.1694,3.176,3.1804,3.1885,3.1906,3.1933,3.1943,3.1928,3.1924,3.1955,3.1951,3.1968,3.1967,3.1966,3.1966,0,3.0963,3.1023,3.1114,3.1208,3.1233,3.1283,3.1364,3.1414,3.1463,3.154,3.1561,3.1638,3.1718,3.178,3.1884,3.1914,3.1999,3.2012,3.1973,3.1978,3.2008,3.2004,3.2099,3.2114,3.2066,3.2066,3.2067,0,3.0995,3.1046,3.1145,3.1188,3.1233,3.1303,3.1352,3.1412,3.1462,3.1554,3.1593,3.1676,3.1744,3.187,3.1936,3.2016,3.203,3.2058,3.2042,3.2025,3.2029,3.2024,3.2029,3.2059,3.2059,3.2059,3.2059,0,3.1045,3.1073,3.1142,3.1221,3.1279,3.1344,3.1411,3.1444,3.1517,3.1571,3.1652,3.1706,3.1812,3.1893,3.198,3.2029,3.2056,3.2064,3.2076,3.206,3.2035,3.2048,3.1976,3.2061,3.2061,3.2061,3.2061,3.2061,3.1072,3.1119,3.1196,3.1271,3.1328,3.1389,3.1441,3.1497,3.1566,3.1656,3.1688,3.1772,3.1849,3.1968,3.2018,3.2085,3.2086,3.2103,3.2108,3.2111,3.2108,3.2025,3.2101,3.2101,3.2101,3.2101,3.2101,0,3.1124,3.1175,3.1244,3.1336,3.1395,3.1416,3.1491,3.154,3.1613,3.1682,3.1749,3.1843,3.1922,3.1995,3.2078,3.2117,3.2132,3.2137,3.2134,3.2145,3.2103,3.2084,3.2124,3.2124,3.2124,3.2124,3.2124,3.2124,3.1157,3.1238,3.1275,3.1384,3.1436,3.1518,3.1559,3.1616,3.1671,3.1774,3.184,3.1887,3.1958,3.2046,3.212,3.214,3.2168,3.2169,3.2192,3.2151,3.2148,3.2145,3.2127,3.2175,3.2175,3.2228,3.2228,3.2229]},{"header":{"parameterUnit":"m.s-1","parameterCategory":1,"la1":30.2991,"la2":30.254,"lo1":-89.0895,"lo2":-89.0444,"dy":0.0017,"dx":0.0017,"nx":28,"ny":28,"refTime":"2024-06-28T03:00:00:Z","depth":0,"parameterNumber":3,"parameterNumberName":"V-component_of_WINDS"},"data":[0,0,0,0,0,0,0,0,0,0,0,0,0,0,0,0,0,0,0,0,0,0,0,0,0,0,0,0,0,0,0,0,0,0,0,0,0,0,0,0,0,0,0,0,0,0,0,0,0,0,0,0,0,0,0,0,0,0,4.9181,4.9181,0,4.9201,4.9202,4.9202,4.9159,4.9158,4.9156,4.9155,4.9173,4.9175,4.9177,0,0,0,0,0,0,0,0,0,0,0,0,0,4.9103,4.9105,4.9181,4.9181,4.9181,4.9201,4.9202,4.9202,4.9159,4.9158,4.9156,4.9154,4.9173,4.9175,4.9177,0,0,0,0,0,0,0,0,0,0,0,0,0,4.9132,4.9106,4.9181,4.9163,4.9161,4.9201,4.9202,4.9202,4.916,4.9158,4.9156,4.9154,4.9172,4.9175,4.9177,4.9235,0,0,4.9185,4.9186,0,0,0,0,0,0,0,0,4.913,4.9135,4.9165,4.9164,4.9162,4.9176,4.9181,4.9213,4.916,4.916,4.9155,4.9153,4.9176,4.9178,4.9186,4.9236,4.9237,4.9186,4.9187,4.9188,4.9189,0,0,0,0,0,0,0,4.9128,4.9134,4.9189,4.9165,4.9164,4.9153,4.9155,4.9187,4.9179,4.916,4.9157,4.916,4.9174,4.9184,4.9186,4.9237,4.9185,4.9188,4.9189,4.919,4.9337,4.9339,0,0,0,0,0,0,4.9129,4.9132,4.9188,4.9189,4.9141,4.9156,4.9158,4.9173,4.9179,4.9178,4.9162,4.9158,4.918,4.9183,4.9187,4.9256,4.9188,4.9191,4.9192,4.9335,4.9338,4.934,0,0,0,0,0,0,4.9127,4.9134,4.9187,4.916,4.9166,4.916,4.9177,4.9175,4.9184,4.918,4.9178,4.9173,4.9179,4.9183,4.9224,4.9256,4.9192,4.9194,4.9332,4.9336,4.9339,4.9394,0,0,0,0,0,0,4.9125,4.9134,4.9156,4.9161,4.9168,4.9225,4.9179,4.9177,4.9189,4.9184,4.919,4.9189,4.9177,4.922,4.9227,4.9258,4.9196,4.9329,4.9334,4.9338,4.9389,4.9399,4.9407,0,0,0,0,0,4.9123,4.9169,4.9157,4.9164,4.9195,4.9227,4.923,4.9217,4.9192,4.9214,4.9212,4.9189,4.9252,4.9225,4.9232,4.9264,4.9327,4.9332,4.9337,4.9385,4.9397,4.9407,0,0,0,0,0,0,4.9166,4.917,4.9156,4.9206,4.9217,4.9219,4.9246,4.9229,4.9246,4.9241,4.9223,4.9225,4.9269,4.9271,4.9241,4.9322,4.9285,4.9292,4.9319,4.933,4.9339,4.9337,4.9199,0,0,0,0,0,4.9182,4.9209,4.9209,4.9253,4.926,4.9253,4.9266,4.9255,4.9264,4.9268,4.9269,4.9279,4.9301,4.9315,4.9335,4.9389,4.939,4.9416,4.9425,4.9432,4.9438,4.9468,4.9479,4.9357,4.9357,4.9357,0,0,4.9214,4.9219,4.9237,4.9262,4.9269,4.9296,4.9256,4.9286,4.9306,4.9272,4.9312,4.9313,4.9323,4.9371,4.9392,4.9374,4.9472,4.9438,4.9444,4.9446,4.9474,4.9486,4.9496,4.9361,4.936,4.9359,0,0,4.9287,4.9293,4.9331,4.934,4.9352,4.9347,4.9357,4.9363,4.9363,4.9402,4.9378,4.9402,4.944,4.9448,4.9457,4.9537,4.9516,4.9544,4.959,4.9619,4.9629,4.9637,4.9666,4.9677,4.955,4.955,4.955,0,4.9325,4.9366,4.9353,4.9385,4.9398,4.9371,4.9409,4.9418,4.9435,4.9444,4.9424,4.9473,4.9477,4.9528,4.9547,4.9556,4.9566,4.9542,4.9629,4.9637,4.9645,4.9672,4.9683,4.9553,4.9553,4.9552,4.9552,0,4.9412,4.9441,4.947,4.949,4.9506,4.9541,4.9534,4.9551,4.954,4.9538,4.9579,4.9584,4.9605,4.9617,4.9605,4.9666,4.9655,4.9632,4.9594,4.966,4.9685,4.9696,4.9558,4.9557,4.9556,4.9555,0,0,4.951,4.9525,4.9536,4.9545,4.9558,4.958,4.9614,4.9637,4.9653,4.9666,4.9695,4.9729,4.9709,4.972,4.9709,4.9735,4.9799,4.9709,4.9709,4.9726,4.9868,4.9885,4.9897,4.9786,4.9788,4.979,4.9867,0,4.9583,4.9644,4.9635,4.9693,4.972,4.9697,4.9727,4.9738,4.9738,4.976,4.9759,4.9784,4.9755,4.9762,4.9787,4.9786,4.9827,4.978,4.9812,4.9814,4.981,4.991,4.9928,5.0001,4.9877,4.9879,4.988,0,4.9674,4.9694,4.9756,4.9767,4.9778,4.9805,4.9826,4.9848,4.9861,4.9859,4.9872,4.9858,4.9892,4.9856,4.9904,4.9872,4.9885,4.9887,4.989,4.9891,4.985,4.9915,5.0023,5.0035,4.9895,4.9894,4.9893,0,4.9741,4.9782,4.9825,4.9834,4.9847,4.9867,4.9874,4.9884,4.9899,4.9917,4.9927,4.9949,4.996,4.9977,4.9969,4.9943,5.0019,4.9981,5.0018,5.0019,5.0034,5.0033,5.0147,5.0043,5.0043,5.0043,5.0043,0,4.9822,4.9861,4.9855,4.9882,4.9925,4.9915,4.9958,4.9961,4.9971,4.9998,4.9978,5.0003,4.9991,5.0015,5.0009,5.0051,5.0056,5.0055,5.0053,5.0057,5.0057,5.0064,5.0059,5.0046,5.0045,5.0045,5.0044,0,4.9903,4.99,4.9946,4.9956,4.996,4.9991,4.9999,5.0024,5.0023,5.0057,5.0065,5.0063,5.0091,5.0085,5.0115,5.0111,5.0163,5.0154,5.0159,5.0157,5.0195,5.0191,5.0316,5.0333,5.0219,5.022,5.0221,0,4.9954,4.9984,4.9999,5.0016,5.0025,5.0052,5.0068,5.006,5.0077,5.0095,5.0118,5.0145,5.0165,5.0211,5.0212,5.0236,5.0227,5.027,5.0231,5.0234,5.0229,5.0227,5.023,5.0277,5.0278,5.028,5.028,0,5.0047,5.0046,5.007,5.0095,5.0115,5.0134,5.015,5.0166,5.0158,5.0179,5.0208,5.0225,5.0257,5.0284,5.0306,5.0312,5.0295,5.0293,5.0303,5.0307,5.0309,5.0309,5.018,5.029,5.0289,5.0288,5.0288,5.0287,5.0115,5.0141,5.0157,5.0185,5.0197,5.0214,5.0239,5.0242,5.0267,5.0294,5.0287,5.0321,5.0334,5.0363,5.0371,5.0397,5.0381,5.0395,5.0399,5.0403,5.0408,5.0305,5.0401,5.0401,5.0401,5.04,5.04,0,5.0207,5.0217,5.0243,5.0269,5.0292,5.0276,5.0294,5.0314,5.0345,5.0359,5.0381,5.0416,5.0443,5.0447,5.0472,5.0492,5.0485,5.0499,5.0497,5.0499,5.042,5.0409,5.0505,5.0505,5.0505,5.0505,5.0504,5.0504,5.0258,5.0302,5.0303,5.0354,5.0362,5.0396,5.0409,5.0424,5.0436,5.0476,5.0499,5.0503,5.0513,5.054,5.0564,5.0564,5.0575,5.0592,5.0589,5.0515,5.0505,5.0495,5.0485,5.0594,5.0594,5.0666,5.0667,5.0668]}]]